Balin, Poland

12:47 AM CET on January 22, 2017 (GMT +0100)
Katowice

Weather History for EPKT - January, 2013

Change the Weather History Date:

Friday, January 4, 2013

  Actual Average Record
Temperature  
Mean Temperature 40 °F -  
Max Temperature 42 °F 32 °F 46 °F (2012)
Min Temperature 37 °F 22 °F -16 °F (2002)
Degree Days  
Heating Degree Days 26    
Moisture  
Dew Point 37 °F    
Average Humidity 88    
Maximum Humidity 100    
Minimum Humidity 76    
Precipitation  
Precipitation 0.00 in - - ()
Sea Level Pressure  
Sea Level Pressure 30.12 in    
Wind  
Wind Speed 16 mph ()    
Max Wind Speed 23 mph    
Max Gust Speed 34 mph    
Visibility 5.3 miles    
Events Rain    
Averages and records for this station are not official NWS values.
T = Trace of Precipitation, MM = Missing Value Source: Averaged Metar Reports

Daily Weather History Graph

Daily Weather History Graph

Search for Another Location

Airport or City:

Trip Planner

Search our weather history database for the weather conditions in past years. The results will help you decide how hot, cold, wet, or windy it might be!

Date:

Astronomy

Jan. 04, 2013 Rise Set
Actual Time 7:42 AM CET 3:55 PM CET
Civil Twilight 7:04 AM CET 4:33 PM CET
Nautical Twilight 6:23 AM CET 5:14 PM CET
Astronomical Twilight 5:43 AM CET 5:54 PM CET
Moon No Moon Rise 10:30 AM CET (1/4)
Length of Visible Light 9h 28m
Length of Day
8h 12m
Waning Gibbous, 58% of the Moon is Illuminated
Jan 4
Waning Gibbous
Jan 5
Last Quarter
Jan 11
New
Jan 19
First Quarter
Jan 27
Full

Hourly Weather History & Observations

Time (CET) Temp. Windchill Dew Point Humidity Pressure Visibility Wind Dir Wind Speed Gust Speed Precip Events Conditions
12:00 AM 42.8 °F 34.0 °F 41.0 °F 93% 30.09 in 5.0 mi WSW 20.7 mph - N/A Rain Light Rain Showers
12:30 AM 42.8 °F 34.0 °F 42.8 °F 100% 30.09 in 5.0 mi West 20.7 mph - N/A Rain Light Rain Showers
1:00 AM 42.8 °F 34.5 °F 41.0 °F 93% 30.09 in 6.2 mi West 18.4 mph - N/A Rain Light Rain
1:30 AM 42.8 °F 34.3 °F 41.0 °F 93% 30.12 in 6.2 mi West 19.6 mph - N/A   Mostly Cloudy
2:00 AM 42.8 °F 33.8 °F 41.0 °F 93% 30.12 in 6.2 mi WNW 21.9 mph - N/A   Mostly Cloudy
2:30 AM 42.8 °F 35.1 °F 39.2 °F 87% 30.12 in 6.2 mi West 16.1 mph 27.6 mph N/A   Mostly Cloudy
3:00 AM 42.8 °F 34.3 °F 39.2 °F 87% 30.12 in 6.2 mi WNW 19.6 mph - N/A   Mostly Cloudy
3:30 AM 42.8 °F 34.3 °F 37.4 °F 81% 30.15 in 6.2 mi WNW 19.6 mph - N/A   Mostly Cloudy
4:00 AM 42.8 °F 34.5 °F 37.4 °F 81% 30.15 in 6.2 mi West 18.4 mph - N/A   Mostly Cloudy
4:30 AM 42.8 °F 34.0 °F 37.4 °F 81% 30.12 in 6.2 mi WNW 20.7 mph - N/A   Mostly Cloudy
5:00 AM 42.8 °F 34.8 °F 35.6 °F 76% 30.15 in 6.2 mi WNW 17.3 mph 28.8 mph N/A   Mostly Cloudy
5:30 AM 42.8 °F 34.8 °F 35.6 °F 76% 30.15 in 6.2 mi WNW 17.3 mph - N/A   Mostly Cloudy
6:00 AM 41.0 °F 32.2 °F 35.6 °F 81% 30.15 in 6.2 mi WNW 18.4 mph 31.1 mph N/A   Mostly Cloudy
6:30 AM 42.8 °F 34.8 °F 35.6 °F 76% 30.15 in 6.2 mi WNW 17.3 mph - N/A   Mostly Cloudy
7:00 AM 41.0 °F 33.1 °F 35.6 °F 81% 30.15 in 6.2 mi WNW 15.0 mph - N/A   Mostly Cloudy
7:30 AM 41.0 °F 32.2 °F 35.6 °F 81% 30.15 in 6.2 mi WNW 18.4 mph - N/A   Mostly Cloudy
8:00 AM 41.0 °F 31.6 °F 35.6 °F 81% 30.15 in 6.2 mi WNW 20.7 mph - N/A   Mostly Cloudy
8:30 AM 41.0 °F 31.4 °F 35.6 °F 81% 30.15 in 6.2 mi WNW 21.9 mph 34.5 mph N/A   Mostly Cloudy
9:00 AM 41.0 °F 31.1 °F 33.8 °F 76% 30.15 in 6.2 mi WNW 23.0 mph 34.5 mph N/A   Mostly Cloudy
9:30 AM 41.0 °F 31.1 °F 33.8 °F 76% 30.18 in 6.2 mi WNW 23.0 mph - N/A   Mostly Cloudy
10:00 AM 41.0 °F 31.6 °F 35.6 °F 81% 30.18 in 6.2 mi WNW 20.7 mph 33.4 mph N/A   Mostly Cloudy
10:30 AM 39.2 °F 29.6 °F 35.6 °F 87% 30.18 in 6.2 mi West 19.6 mph - N/A Rain Light Rain
11:00 AM 41.0 °F 32.2 °F 35.6 °F 81% 30.18 in 6.2 mi WNW 18.4 mph - N/A Rain Light Rain
11:30 AM 39.2 °F 31.6 °F 35.6 °F 87% 30.18 in 6.2 mi WNW 12.7 mph 28.8 mph N/A Rain Light Rain
12:00 PM 39.2 °F 32.0 °F 37.4 °F 93% 30.18 in 6.2 mi WNW 11.5 mph - N/A Rain Light Rain
12:30 PM 39.2 °F 31.2 °F 35.6 °F 87% 30.18 in 6.2 mi WNW 13.8 mph - N/A   Mostly Cloudy
1:00 PM 41.0 °F 33.5 °F 35.6 °F 81% 30.18 in 6.2 mi West 13.8 mph - N/A   Mostly Cloudy
1:30 PM 41.0 °F 32.5 °F 35.6 °F 81% 30.15 in 6.2 mi West 17.3 mph - N/A   Mostly Cloudy
2:00 PM 41.0 °F 33.1 °F 35.6 °F 81% 30.15 in 6.2 mi WNW 15.0 mph 26.5 mph N/A   Mostly Cloudy
2:30 PM 41.0 °F 32.5 °F 35.6 °F 81% 30.15 in 6.2 mi WNW 17.3 mph - N/A   Mostly Cloudy
3:00 PM 41.0 °F 32.5 °F 35.6 °F 81% 30.15 in 6.2 mi WNW 17.3 mph - N/A   Mostly Cloudy
3:30 PM 41.0 °F 33.5 °F 37.4 °F 87% 30.15 in 6.2 mi West 13.8 mph - N/A Rain Light Rain
4:00 PM 41.0 °F 32.8 °F 37.4 °F 87% 30.15 in 6.2 mi West 16.1 mph - N/A Rain Light Rain
4:30 PM 41.0 °F 33.1 °F 37.4 °F 87% 30.15 in 6.2 mi West 15.0 mph - N/A Rain Light Rain
5:00 PM 41.0 °F 32.8 °F 37.4 °F 87% 30.12 in 6.2 mi West 16.1 mph - N/A Rain Light Rain
5:30 PM 41.0 °F 32.5 °F 37.4 °F 87% 30.12 in 6.2 mi West 17.3 mph - N/A Rain Light Rain
6:00 PM 39.2 °F 30.8 °F 37.4 °F 93% 30.12 in 6.2 mi West 15.0 mph - N/A Rain Light Rain
6:30 PM 39.2 °F 32.5 °F 39.2 °F 100% 30.09 in 5.0 mi WSW 10.4 mph - N/A Rain Light Rain
7:00 PM 39.2 °F 33.6 °F 39.2 °F 100% 30.09 in 5.0 mi WSW 8.1 mph - N/A Rain Light Rain
7:30 PM 39.2 °F 33.0 °F 39.2 °F 100% 30.06 in 2.5 mi WSW 9.2 mph - N/A Rain Light Rain
8:00 PM 39.2 °F 34.2 °F 39.2 °F 100% 30.06 in 1.9 mi SW 6.9 mph - N/A Rain Light Rain
8:30 PM 39.2 °F 34.2 °F 39.2 °F 100% 30.04 in 1.6 mi SW 6.9 mph - N/A Rain Light Rain
9:00 PM 39.2 °F 32.0 °F 39.2 °F 100% 30.04 in 2.2 mi WSW 11.5 mph - N/A Rain Light Rain
9:30 PM 39.2 °F 33.0 °F 39.2 °F 100% 30.01 in 2.5 mi WSW 9.2 mph - N/A Rain Light Rain
10:00 PM 39.2 °F 35.9 °F 39.2 °F 100% 30.01 in 1.6 mi SSW 4.6 mph - N/A Rain Light Rain
10:30 PM 37.4 °F 31.4 °F 37.4 °F 100% 29.98 in 1.6 mi WSW 8.1 mph - N/A Rain Light Rain
11:00 PM 37.4 °F 30.8 °F 37.4 °F 100% 29.98 in 1.6 mi SW 9.2 mph - N/A Rain Light Rain
11:30 PM 37.4 °F 30.3 °F 37.4 °F 100% 29.95 in 1.6 mi SW 10.4 mph - N/A Rain Light Rain